Volk, WI

10:47 PM CST on February 23, 2018 (GMT -0600)
Volk

Weather History for KVOK - March, 2013

Change the Weather History Date:

Sunday, March 31, 2013

  Actual Average Record
Temperature  
Mean Temperature 34 °F -  
Max Temperature 41 °F 47 °F 75 °F (1999)
Min Temperature 27 °F 32 °F 21 °F (2011)
Degree Days  
Heating Degree Days 30    
Moisture  
Dew Point 32 °F    
Average Humidity 86    
Maximum Humidity 100    
Minimum Humidity 46    
Precipitation  
Precipitation 0.01 in - - ()
Sea Level Pressure  
Sea Level Pressure 29.80 in    
Wind  
Wind Speed 8 mph (West)    
Max Wind Speed 22 mph    
Max Gust Speed 29 mph    
Visibility 7 miles    
Events      
Averages and records for this station are not official NWS values.
T = Trace of Precipitation, MM = Missing Value Source: NWS Daily Summary

Daily Weather History Graph

Daily Weather History Graph

Search for Another Location

Airport or City:

Trip Planner

Search our weather history database for the weather conditions in past years. The results will help you decide how hot, cold, wet, or windy it might be!

Date:

Astronomy

Mar. 31, 2013 Rise Set
Actual Time 6:43 AM CDT 7:27 PM CDT
Civil Twilight 6:14 AM CDT 7:56 PM CDT
Nautical Twilight 5:40 AM CDT 8:30 PM CDT
Astronomical Twilight 5:04 AM CDT 9:06 PM CDT
Moon No Moon Rise 9:22 AM CDT (3/31)
Length of Visible Light 13h 41m
Length of Day
12h 43m
Waning Gibbous, 77% of the Moon is Illuminated
Mar 31
Waning Gibbous
Apr 2
Last Quarter
Apr 10
New
Apr 18
First Quarter
Apr 25
Full

Hourly Weather History & Observations

Time (CDT) Temp. Windchill Dew Point Humidity Pressure Visibility Wind Dir Wind Speed Gust Speed Precip Events Conditions
12:27 AM 35.6 °F 32.8 °F 35.6 °F 100% 29.83 in 6.0 mi WSW 3.5 mph - N/A   Overcast
12:55 AM 35.6 °F - 35.2 °F 99% 29.83 in 5.0 mi Calm Calm - N/A   Overcast
1:29 AM 35.6 °F 32.8 °F 35.6 °F 100% 29.83 in 4.0 mi West 3.5 mph - N/A   Overcast
1:54 AM 37.4 °F 33.8 °F 37.4 °F 100% 29.81 in 4.0 mi West 4.6 mph - N/A   Overcast
1:55 AM 37.9 °F 34.4 °F 37.6 °F 99% 29.81 in 4.0 mi West 4.6 mph - N/A   Overcast
2:07 AM 37.4 °F - 37.4 °F 100% 29.81 in 3.0 mi Calm Calm - N/A   Overcast
2:41 AM 37.4 °F 32.8 °F 37.4 °F 100% 29.79 in 4.0 mi WSW 5.8 mph - N/A   Overcast
2:51 AM 37.4 °F 32.1 °F 37.4 °F 100% 29.79 in 4.0 mi West 6.9 mph - N/A   Overcast
2:55 AM 37.0 °F 32.4 °F 36.9 °F 99% 29.79 in 4.0 mi West 5.8 mph - N/A   Overcast
3:04 AM 37.4 °F 31.4 °F 37.4 °F 100% 29.79 in 4.0 mi West 8.1 mph - N/A   Overcast
3:45 AM 37.4 °F 32.1 °F 37.4 °F 100% 29.79 in 4.0 mi West 6.9 mph - N/A   Overcast
3:53 AM 39.2 °F 32.5 °F 37.4 °F 93% 29.78 in 4.0 mi West 10.4 mph - N/A   Overcast
3:55 AM 38.5 °F 32.1 °F 38.3 °F 99% 29.78 in 4.0 mi West 9.2 mph - N/A   Overcast
4:04 AM 39.2 °F 32.5 °F 39.2 °F 100% 29.78 in 5.0 mi West 10.4 mph - N/A   Overcast
4:11 AM 39.2 °F 32.5 °F 37.4 °F 93% 29.78 in 5.0 mi West 10.4 mph - N/A   Overcast
4:16 AM 39.2 °F 31.6 °F 37.4 °F 93% 29.78 in 5.0 mi West 12.7 mph - N/A   Overcast
4:55 AM 37.2 °F 31.2 °F 36.5 °F 97% 29.78 in 5.0 mi West 8.1 mph - 0.01 in   Overcast
4:57 AM 37.4 °F 30.8 °F 35.6 °F 93% 29.78 in 5.0 mi West 9.2 mph - N/A   Overcast
5:26 AM 37.4 °F 30.8 °F 35.6 °F 93% 29.78 in 5.0 mi West 9.2 mph - N/A   Overcast
5:55 AM 36.0 °F 30.3 °F 35.6 °F 99% 29.77 in 4.0 mi West 6.9 mph - N/A   Overcast
6:55 AM 35.2 °F 27.1 °F 34.5 °F 97% 29.77 in 3.0 mi West 11.5 mph - N/A   Overcast
7:11 AM 35.6 °F 26.6 °F 33.8 °F 93% 29.77 in 4.0 mi West 13.8 mph - N/A   Overcast
7:55 AM 34.7 °F 25.5 °F 33.4 °F 95% 29.77 in 5.0 mi West 13.8 mph - N/A   Overcast
8:42 AM 35.6 °F 28.0 °F 33.8 °F 93% 29.75 in 7.0 mi West 10.4 mph - N/A   Mostly Cloudy
8:51 AM 35.6 °F 28.0 °F 33.8 °F 93% 29.74 in 7.0 mi West 10.4 mph - N/A   Mostly Cloudy
8:55 AM 35.6 °F 27.5 °F 33.8 °F 93% 29.77 in 7.0 mi West 11.5 mph - N/A   Mostly Cloudy
9:55 AM 37.4 °F 28.5 °F 33.8 °F 87% 29.76 in 10.0 mi West 15.0 mph - N/A   Mostly Cloudy
10:55 AM 39.2 °F 30.2 °F 33.8 °F 81% 29.76 in 10.0 mi West 17.3 mph - N/A   Mostly Cloudy
11:55 AM 37.4 °F 28.9 °F 32.0 °F 81% 29.77 in 10.0 mi West 13.8 mph - N/A   Overcast
12:55 PM 35.6 °F 27.1 °F 32.0 °F 87% 29.78 in 10.0 mi West 12.7 mph - N/A   Overcast
1:51 PM 37.4 °F 28.2 °F 32.0 °F 81% 29.75 in 10.0 mi WNW 16.1 mph - N/A   Light Drizzle
1:55 PM 37.4 °F 28.2 °F 32.0 °F 81% 29.78 in 10.0 mi WNW 16.1 mph - N/A   Light Drizzle
2:15 PM 37.4 °F 27.5 °F 32.0 °F 81% 29.76 in 10.0 mi West 18.4 mph 25.3 mph N/A   Light Drizzle
2:40 PM 37.4 °F 28.9 °F 32.0 °F 81% 29.75 in 10.0 mi West 13.8 mph 21.9 mph N/A   Mostly Cloudy
2:55 PM 41.0 °F 32.5 °F 33.8 °F 76% 29.78 in 10.0 mi West 17.3 mph 26.5 mph N/A   Mostly Cloudy
3:53 PM 39.2 °F 29.0 °F 30.2 °F 70% 29.76 in 10.0 mi West 21.9 mph 26.5 mph N/A   Light Drizzle
3:55 PM 39.2 °F 29.0 °F 30.2 °F 70% 29.78 in 10.0 mi West 21.9 mph 28.8 mph N/A   Light Drizzle
4:24 PM 35.6 °F 27.1 °F 32.0 °F 87% 29.77 in 10.0 mi WNW 12.7 mph 20.7 mph N/A   Mostly Cloudy
4:55 PM 39.2 °F 31.2 °F 32.0 °F 75% 29.79 in 10.0 mi West 13.8 mph - N/A   Overcast
5:55 PM 38.5 °F 29.2 °F 20.8 °F 49% 29.81 in 10.0 mi WNW 17.3 mph - N/A   Scattered Clouds
6:55 PM 35.6 °F 27.1 °F 18.0 °F 49% 29.85 in 10.0 mi NW 12.7 mph - N/A   Scattered Clouds
7:55 PM 33.8 °F 23.9 °F 14.9 °F 46% 29.88 in 10.0 mi NW 15.0 mph 24.2 mph N/A   Partly Cloudy
8:55 PM 31.5 °F 22.9 °F 15.1 °F 51% 29.91 in 10.0 mi WNW 10.4 mph - N/A   Clear
9:55 PM 29.1 °F 19.4 °F 17.6 °F 62% 29.94 in 10.0 mi WNW 11.5 mph - N/A   Clear
10:55 PM 28.4 °F 18.5 °F 17.4 °F 63% 29.96 in 10.0 mi WNW 11.5 mph - N/A   Clear
11:55 PM 27.7 °F 18.2 °F 16.3 °F 62% 29.98 in 10.0 mi NW 10.4 mph - N/A   Clear